Location: Rounton
(54.4000°N, 1.3500°W)
Time: 13:04:30
(UTC+00:00)

Transit 4A - Pass Details

Date: 03 December 2021
Orbit: 864 x 981 km, 66.8° (Epoch: 18 January)

Event Time Altitude Azimuth Distance (km) Brightness Sun altitude
Rises 21:44:18 0° 252° (WSW) 3,489 - -49.5°
Reaches altitude 10° 21:46:56 10° 260° (W) 2,567 - -49.8°
Maximum altitude 21:52:32 41° 330° (NNW) 1,310 - -50.4°
Drops below altitude 10° 21:58:19 10° 40° (NE) 2,653 - -51.0°
Sets 22:01:05 0° 47° (NE) 3,618 - -51.3°
